Simultaneous Nadir Overpasses (SNOs) Predictions

Prediction of SNOs between AURA and NPP Satellite Orbit:

Table of predicted SNOs for the next 14.0 days since TLE Epoch: 1/10/2020
Index Date (AURA) Time (AURA) Lat,Lon (AURA) SZA (AURA ) Date (NPP) Time (NPP) Lat,Lon (NPP) SZA (NPP ) Distance(km) Time Diff (sec)
1 01/12/2020 11:24:59 -79.51, 85.70 65.95 01/12/2020 11:24:07 -79.52, 85.72 65.92 0.28 52
2 01/12/2020 12:14:18 79.77,-104.79 113.68 01/12/2020 12:14:43 79.78,-104.67 113.63 2.63 25
3 01/15/2020 03:41:27 -79.58,-157.92 66.46 01/15/2020 03:40:58 -79.58,-157.94 66.43 0.43 29
4 01/15/2020 04:30:46 79.83, 11.59 113.17 01/15/2020 04:31:34 79.84, 11.69 113.12 2.11 48
5 01/17/2020 19:57:55 -79.65, -41.56 67.01 01/17/2020 19:57:49 -79.65, -41.60 67.00 0.68 6
6 01/17/2020 20:47:14 79.90, 127.96 112.62 01/17/2020 20:48:25 79.90, 128.05 112.55 2.05 71
7 01/20/2020 11:25:02 79.44, -94.83 112.81 01/20/2020 11:24:02 79.43, -94.97 112.88 2.86 60
8 01/20/2020 12:14:22 -79.71, 74.77 67.61 01/20/2020 12:14:39 -79.71, 74.74 67.61 0.52 17
9 01/23/2020 03:41:29 79.53, 21.70 112.12 01/23/2020 03:40:52 79.53, 21.60 112.16 2.12 37




NCC Satellite Simultaneous Nadir Overpasses (SNOs) Prediction Service
